Temp
10 10 10 10 10 11 12 13 14 16 16 17 17 17 17 17 18 17 17 18 18 17 18 18 18 18 18 20 18 17 17 18 18 19 20 21 23 23 24 23 24 21 21 20 20 18 18
11 11 11 11 10 11 12 14 15 16 16 16 16 17 17 17 17 17 18 18 17 17 17 18 18 18 18 20 16 17 17 17 18 20 20 21 21 21 23 22 21 22 21 19 19 19 17
11 11 11 11 12 12 13 15 15 16 16 16 16 16 17 17 17 17 18 18 17 17 17 17 18 18 19 16 17 17 17 18 18 18 20 19 20 21 23 20 22 21 19 20 19 18 18
11 11 11 11 11 12 13 14 15 15 16 16 16 16 17 17 17 17 18 18 18 17 17 18 18 18 17 17 17 17 18 19 18 18 18 18 19 21 21 20 21 21 22 19 20 19 17
10 11 11 11 11 12 12 13 15 15 16 16 16 16 16 17 17 17 18 17 18 18 18 18 18 19 17 17 18 17 17 18 18 19 18 19 20 21 20 20 20 21 19 20 19 19 17
10 10 11 11 11 11 12 13 14 15 15 16 16 16 16 17 17 17 17 17 17 18 18 18 19 19 18 18 17 17 17 17 19 19 19 20 20 19 19 19 19 21 20 23 21 18 18
10 10 10 10 11 11 12 12 13 14 15 15 15 16 17 17 17 17 17 17 17 18 18 17 18 18 18 17 17 18 17 17 19 19 20 20 19 19 22 21 20 20 21 20 20 20 19
10 9 10 10 11 11 11 12 13 14 15 15 15 16 16 17 17 17 16 18 13 14 17 17 17 17 17 16 18 18 17 18 19 20 20 19 19 18 19 19 20 20 20 20 19 18 18
11 10 10 10 10 10 11 11 12 13 14 15 15 15 16 17 16 15 15 12 12 13 17 17 17 18 17 17 18 17 17 18 19 20 20 19 18 19 19 19 19 20 19 19 19 19 17
11 11 10 10 10 10 11 11 12 13 14 14 15 15 16 17 16 15 13 13 13 13 18 18 17 17 17 17 17 16 15 16 19 19 19 19 18 19 19 19 19 18 17 18 18 17 14
11 11 11 10 10 10 10 11 11 12 13 14 14 15 15 16 15 15 13 13 13 13 17 17 17 16 17 17 17 16 15 17 18 19 18 18 18 17 18 18 18 17 16 17 17 15 15
12 12 12 11 10 10 10 10 11 11 13 13 14 14 15 14 14 13 13 13 13 17 17 17 17 17 17 17 17 17 17 17 16 17 18 17 16 16 16 16 16 16 16 16 16 14 10
12 12 12 11 11 10 10 10 11 11 12 13 13 14 14 14 13 13 12 13 17 16 18 17 17 17 18 18 17 17 17 16 16 15 16 17 16 15 15 16 16 15 15 12 12 11 12
12 12 12 11 11 10 10 10 11 11 12 13 13 13 13 13 13 13 12 16 18 20 20 16 17 17 18 18 17 16 17 16 15 16 15 14 14 15 14 14 14 14 16 13 15 14 14
12 12 12 11 11 11 10 10 10 11 11 12 13 12 12 12 12 12 14 16 17 21 19 17 16 17 17 17 16 16 16 16 14 15 16 17 15 13 13 13 14 15 13 15 13 15 12
13 13 12 12 11 11 11 10 10 10 11 12 12 13 14 12 12 12 15 17 18 16 17 17 19 19 19 16 16 17 16 14 13 13 13 14 14 13 12 12 13 13 14 12 12 11 13
12 12 12 12 11 11 10 10 10 10 10 12 11 13 12 12 12 13 14 17 16 15 15 17 19 19 18 18 17 18 17 12 12 11 12 13 13 12 12 11 13 11 11 12 12 11 10
11 13 12 12 11 11 11 10 9 9 10 11 12 13 11 12 13 14 16 16 12 14 14 15 15 16 17 17 17 17 17 12 12 12 12 12 12 12 13 10 10 11 12 13 9 12 11
10 11 11 11 12 11 11 10 9 9 9 10 11 13 11 12 14 14 13 14 14 13 14 14 15 14 14 16 15 16 13 9 10 11 12 12 11 10 11 10 9 10 11 11 10 8 8
9 10 10 10 11 11 11 10 9 9 8 9 9 12 11 11 12 14 15 15 12 10 13 13 13 13 13 14 15 14 12 9 9 10 9 10 10 11 10 12 11 10 9 9 8 5 9
9 9 9 10 11 11 11 10 9 8 8 7 8 10 12 10 12 13 15 14 14 11 11 12 12 12 13 13 14 13 12 8 8 9 9 9 8 9 10 10 9 10 9 8 8 7 6
8 9 9 9 9 10 10 10 10 8 5 5 8 8 11 13 14 14 13 12 13 12 11 11 11 12 12 13 13 13 12 10 10 8 8 8 8 8 7 8 7 7 7 7 7 7 6
8 8 8 9 9 9 9 9 9 8 7 4 5 8 8 11 12 13 12 13 12 11 9 10 12 12 11 11 9 8 8 8 9 8 7 7 7 7 7 7 7 6 4 3 6 2 1
7 7 8 8 9 9 9 9 9 8 9 7 4 5 7 9 10 11 13 12 11 11 10 9 9 11 7 7 7 7 6 7 8 6 6 7 7 6 4 6 4 1 1 -1 -2 -2 -4
7 7 7 8 8 9 9 9 9 9 8 6 4 5 6 8 7 8 10 10 8 8 7 7 6 6 7 7 7 7 6 6 6 4 5 5 6 5 3 4 5 -1 -1 -1 -2 -2 -4
6 7 7 7 7 8 8 8 8 8 7 5 3 5 4 6 6 3 7 8 8 8 6 4 5 7 7 6 7 8 8 9 4 3 4 4 4 3 4 3 4 -1 -1 0 -5 -4 -5
6 7 7 7 7 7 7 7 8 7 5 5 3 3 3 5 0 1 4 6 7 7 6 4 3 3 4 5 7 7 8 7 5 5 2 2 2 2 3 1 0 -3 -1 -1 -4 -3 -4
6 6 6 7 7 7 7 7 7 5 4 3 1 2 3 1 -2 -1 -1 3 4 5 5 4 4 3 3 5 6 5 4 4 5 6 3 3 2 -0 1 0 1 -2 -2 -2 -5 -3 -2
6 7 7 7 7 7 7 7 5 5 4 3 1 0 2 -1 -1 -1 -1 -1 -1 0 3 3 4 4 4 4 5 4 4 3 4 1 2 3 3 2 3 1 -3 -2 -3 -3 -3 -3 -4
Height
836 836 835 835 833 832 831 830 829 827 826 825 824 823 821 820 817 816 814 812 810 809 808 808 808 809 810 809 816 814 812 811 810 808 807 806 804 804 806 806 804 816 818 820 822 824 828
837 837 836 835 835 833 831 830 829 828 827 826 825 823 821 819 817 816 814 812 811 810 809 808 809 810 810 813 816 815 813 812 811 809 809 807 808 806 807 810 815 811 817 825 827 829 834
837 837 836 835 834 833 832 830 829 829 827 826 824 823 821 819 817 815 813 812 811 810 810 810 810 810 811 819 817 815 814 813 812 811 810 811 810 808 805 817 812 816 827 825 826 829 832
838 836 835 835 834 833 832 830 830 829 827 826 824 822 821 819 817 815 812 811 811 811 811 811 811 811 817 817 817 816 815 814 813 812 812 812 810 810 811 814 816 822 820 835 824 827 834
839 837 835 834 834 833 832 830 829 828 826 825 823 822 820 818 816 814 812 811 811 811 811 812 812 812 819 818 818 817 816 815 814 813 813 812 811 813 815 821 827 821 836 829 832 824 833
840 838 836 834 834 833 832 830 828 827 826 825 824 822 820 818 816 814 812 812 812 812 812 812 812 816 818 818 818 817 816 815 814 814 814 813 814 820 821 825 839 824 829 814 819 826 829
840 838 837 835 833 832 831 830 828 827 825 825 823 821 819 818 816 814 813 813 816 816 813 817 818 817 817 818 817 817 816 815 813 814 818 814 825 829 813 816 819 820 820 823 820 819 828
839 839 837 835 833 832 831 829 827 826 825 824 822 821 819 817 816 816 815 814 818 820 820 817 818 818 818 818 816 816 816 815 813 816 815 823 825 822 818 819 821 820 824 824 823 823 829
835 837 837 836 834 832 831 828 826 825 824 822 821 820 818 816 816 816 816 819 818 818 816 818 817 816 818 819 817 819 818 815 814 814 815 821 824 819 820 822 823 822 825 824 827 825 826
833 833 836 835 833 832 830 829 827 825 823 821 820 819 817 816 819 817 819 818 818 818 819 821 818 820 819 818 821 821 821 821 816 819 817 819 823 822 823 825 822 832 829 827 829 834 852
830 829 831 833 833 831 830 829 827 825 822 821 820 819 817 815 816 817 820 818 818 819 839 821 820 820 819 821 821 822 821 818 819 817 822 823 825 827 827 826 824 833 831 832 832 839 842
827 827 827 829 830 830 829 828 826 825 823 821 820 818 817 817 816 818 818 818 819 826 836 822 818 820 821 819 819 819 819 820 821 822 821 825 827 828 832 832 832 832 834 835 836 843 866
823 824 824 825 826 828 828 827 825 824 823 821 819 818 816 816 817 817 818 819 824 835 816 820 818 818 816 818 820 819 820 823 827 837 831 825 828 833 832 834 835 836 840 858 861 864 854
816 818 820 821 822 824 825 825 824 823 821 820 819 817 816 816 815 816 818 821 827 802 806 814 813 816 818 815 819 821 822 826 828 828 834 838 844 833 836 838 840 838 834 851 843 841 835
811 812 814 817 818 820 822 823 823 822 821 819 818 817 817 815 815 817 819 825 815 797 802 810 817 818 818 819 823 822 822 823 829 827 832 827 833 840 839 838 839 837 846 836 842 832 846
805 806 808 811 813 815 818 819 821 821 819 818 817 817 814 814 815 817 820 813 805 807 807 806 808 805 807 817 824 820 820 829 833 833 833 832 837 838 844 843 840 841 840 849 851 859 837
802 802 802 804 807 810 812 814 817 818 817 816 817 815 813 813 815 818 821 808 810 811 811 809 804 806 806 809 812 811 815 836 833 837 835 832 835 846 842 843 836 849 846 842 846 849 852
801 798 799 800 803 806 808 809 811 813 815 816 816 816 811 812 817 810 809 807 816 814 815 813 814 811 810 809 815 815 812 829 835 835 835 837 836 842 833 846 844 841 837 836 862 840 837
797 796 798 796 796 801 803 806 807 808 811 813 813 808 811 812 813 811 813 813 813 816 814 816 815 817 817 815 820 812 826 844 840 837 836 837 843 853 841 850 850 846 841 842 846 856 854
796 796 797 795 796 800 801 801 806 806 808 813 816 811 810 810 806 803 804 807 815 820 816 816 817 819 819 819 816 821 830 845 846 842 844 843 843 837 844 830 838 844 847 848 853 873 839
793 793 794 795 794 796 798 800 803 804 805 812 815 809 801 810 804 801 797 802 808 817 821 819 822 819 816 818 815 821 824 846 848 845 846 846 851 842 837 838 839 837 844 846 850 847 859
790 790 790 791 791 794 795 799 798 800 802 809 812 810 801 794 791 797 801 807 804 810 817 818 820 813 817 817 813 816 821 831 836 848 847 847 849 847 849 843 847 846 847 845 844 845 847
788 788 789 787 788 790 791 794 797 795 800 802 810 808 808 797 795 796 800 795 801 807 817 816 813 814 817 819 825 831 833 835 833 840 847 851 854 853 850 846 850 850 853 855 845 858 867
786 786 786 786 786 786 787 790 790 792 795 796 803 807 810 806 801 798 794 796 803 806 813 817 820 816 832 828 829 836 839 840 838 842 847 846 848 855 866 852 871 868 868 872 876 880 884
781 782 784 784 784 784 784 785 786 790 793 792 797 802 803 805 806 804 803 805 810 813 820 823 830 831 832 830 833 839 843 844 846 850 850 850 849 859 871 865 843 877 873 874 879 883 886
777 779 780 781 781 783 783 783 782 785 788 793 792 796 800 804 805 814 809 809 810 813 825 831 833 831 834 834 833 827 821 820 849 858 855 854 856 863 862 871 858 874 871 868 884 892 887
773 775 777 777 778 778 779 777 777 781 784 790 792 793 798 803 813 814 814 813 807 810 819 828 834 837 836 836 831 826 822 826 837 841 862 863 865 866 861 871 864 872 870 872 899 889 882
770 772 772 772 773 774 774 773 775 778 781 787 791 794 797 802 813 817 819 816 816 815 817 824 829 834 840 835 829 831 834 838 832 829 845 847 858 875 870 875 869 866 873 878 880 875 878
767 766 766 765 766 768 771 772 773 777 780 787 792 793 797 805 816 818 819 824 823 824 821 819 821 820 825 826 826 824 830 837 835 852 841 847 839 845 846 855 864 864 866 869 871 875 881
Wind_Speed
6 7 8 9 9 8 9 8 8 7 8 8 9 10 10 11 11 11 11 8 7 6 5 3 2 2 1 3 4 9 10 11 8 7 7 6 5 4 0 4 1 9 6 7 8 10 10
6 7 8 9 9 9 9 8 8 8 8 8 9 9 10 10 11 10 10 8 6 6 5 4 3 2 2 1 3 8 9 9 11 8 8 10 5 5 4 5 5 5 8 9 7 6 6
4 6 7 8 9 10 10 9 8 7 8 8 9 9 10 11 11 10 9 6 5 5 5 4 3 2 5 3 3 8 6 7 8 7 3 6 5 3 2 5 1 7 6 5 7 8 4
5 5 5 7 8 9 10 8 7 7 8 8 8 9 9 10 11 10 7 4 4 4 3 3 2 1 4 1 4 8 7 2 5 5 4 3 5 2 3 5 3 5 2 4 6 8 6
9 7 5 6 7 8 8 8 7 7 7 9 10 10 10 11 10 9 6 3 2 3 4 2 2 3 4 2 2 6 6 5 5 3 3 2 3 2 2 3 3 5 4 7 5 9 6
11 9 8 6 7 8 9 10 7 7 7 8 10 11 11 12 10 9 4 2 3 4 4 2 2 1 2 1 2 5 4 4 3 2 2 3 2 2 3 3 2 1 5 4 4 8 7
16 14 11 8 7 7 8 9 10 9 8 9 10 10 11 12 9 8 2 1 2 3 8 5 4 1 2 1 2 2 3 4 3 3 2 1 2 4 2 0 4 5 6 7 6 5 5
15 14 13 10 9 8 8 8 8 9 9 10 11 11 11 11 5 6 4 3 3 2 3 1 1 3 1 2 2 4 7 3 3 1 2 2 0 6 6 5 4 5 6 7 4 7 3
16 18 15 13 11 10 10 10 9 8 7 7 9 11 11 11 3 6 6 4 1 3 3 3 1 1 1 4 3 4 8 1 3 3 3 2 3 3 2 2 3 5 5 5 3 2 8
16 16 17 16 13 12 11 10 10 10 9 8 8 8 8 5 1 2 2 1 2 3 2 5 3 2 2 2 2 3 5 3 2 3 2 3 1 1 2 3 2 4 6 5 4 2 3
18 17 17 18 17 14 12 12 11 10 10 9 9 8 5 4 1 1 1 1 2 1 3 2 3 1 1 2 1 1 1 3 3 2 2 2 3 3 4 2 4 3 4 4 4 5 5
21 19 16 17 17 16 14 12 11 11 10 9 8 7 5 1 2 2 2 2 1 2 5 3 2 2 3 3 4 3 1 2 2 2 3 3 2 3 4 4 4 2 3 5 3 1 2
23 21 19 18 17 16 15 13 11 11 11 9 8 5 3 0 2 2 3 1 1 3 1 4 3 4 2 3 4 1 2 3 0 2 3 3 4 3 2 2 2 0 2 3 2 0 6
27 25 22 20 19 18 16 15 12 10 10 9 7 5 2 1 2 3 2 1 3 0 4 1 3 3 3 3 2 3 2 2 2 1 2 3 3 2 1 2 2 5 1 4 5 3 3
22 27 26 25 22 20 18 15 13 11 9 7 5 4 2 4 2 4 1 2 4 2 5 7 2 4 5 3 0 4 6 2 4 2 4 1 3 3 3 0 0 3 4 2 3 5 4
15 18 24 29 26 23 20 17 14 11 9 6 2 3 4 3 2 2 1 5 2 3 2 0 4 6 4 8 4 5 7 1 4 1 2 2 2 1 2 2 3 1 3 1 1 3 5
11 11 13 24 28 26 24 20 15 12 9 4 1 2 2 3 5 1 3 3 3 2 3 2 2 2 4 4 4 3 2 0 1 3 2 3 2 2 1 6 5 3 2 3 0 2 3
17 15 12 10 20 25 25 22 18 14 7 4 2 3 4 7 2 3 2 2 2 3 1 1 2 3 3 3 4 4 2 5 5 3 2 1 1 3 3 3 4 2 2 2 4 4 4
13 11 12 14 11 19 21 22 20 16 10 4 2 0 2 4 4 4 2 3 2 3 3 3 3 2 4 2 3 2 5 1 1 2 0 2 3 3 0 1 2 3 4 3 2 1 7
13 13 11 12 13 14 13 21 23 15 13 6 2 2 1 2 1 1 5 5 5 0 1 1 3 1 3 3 2 1 3 2 1 1 2 2 3 6 5 2 4 4 5 6 7 3 8
14 14 15 16 15 14 13 12 23 15 13 13 2 4 2 4 5 5 4 4 5 4 2 3 2 7 5 5 3 5 5 3 3 4 2 1 4 5 6 6 5 3 6 8 11 10 6
12 14 16 16 16 19 16 16 20 19 22 6 3 2 2 2 2 7 5 7 9 4 7 4 4 8 7 5 1 4 6 6 5 5 4 3 3 4 3 8 8 5 8 10 11 9 9
10 11 12 14 17 17 20 20 24 25 23 5 3 3 2 2 3 4 6 6 8 10 1 3 4 4 6 1 7 6 5 5 4 6 6 5 2 2 3 2 6 7 10 4 3 3 4
12 12 12 12 14 16 16 22 26 27 23 11 7 4 2 3 2 4 3 4 6 5 5 4 2 3 3 7 8 7 7 5 3 5 4 4 3 1 3 2 4 2 2 3 4 3 4
15 15 15 14 14 15 17 18 30 27 27 18 12 6 3 3 1 1 3 1 7 6 3 4 4 4 6 4 3 3 2 2 3 5 3 2 3 2 2 4 3 1 3 3 4 3 0
15 17 18 18 17 17 17 20 29 28 29 23 20 14 3 4 4 2 4 5 2 4 3 3 1 2 1 2 2 6 5 4 4 3 2 1 2 2 2 3 5 3 4 4 3 4 3
15 17 20 21 22 21 18 18 26 29 31 22 11 14 6 3 2 1 3 3 1 3 3 4 5 2 3 3 4 4 3 1 5 5 5 3 2 5 5 4 4 5 7 4 5 5 6
12 17 22 25 25 21 18 18 26 26 26 20 7 17 4 2 3 2 3 1 2 2 3 5 4 1 1 4 3 3 2 4 1 2 6 6 6 3 2 2 8 8 4 5 4 4 5
14 19 22 23 22 19 15 21 24 27 25 18 7 13 9 7 4 5 8 5 3 2 2 4 1 3 5 3 1 2 2 2 2 3 2 3 3 4 5 4 0 8 5 5 4 5 4
Wind_Direction
9 8 10 6 5 6 2 359 358 4 8 8 10 8 4 4 2 358 359 354 2 14 26 50 70 121 113 196 60 338 350 16 11 6 3 346 319 350 68 93 176 90 82 59 82 79 81
350 349 358 1 357 358 358 357 357 357 358 2 5 5 2 0 358 353 353 352 9 20 37 49 83 128 277 208 22 343 1 13 20 17 31 16 17 324 53 46 28 98 121 122 121 106 117
328 335 349 352 353 355 358 358 356 354 353 356 3 359 356 355 353 352 355 356 18 22 36 51 88 109 74 80 7 9 357 7 18 23 38 27 335 309 341 115 65 121 116 144 161 159 127
293 312 336 338 343 346 350 354 351 349 347 349 354 353 351 350 349 349 355 10 22 21 14 32 83 4 64 359 85 13 11 14 14 22 40 18 350 76 360 120 149 192 209 189 153 167 144
289 293 312 319 331 335 341 347 345 341 345 343 344 346 347 346 345 346 350 24 23 42 22 73 348 273 101 58 11 358 3 357 334 17 9 327 297 54 175 213 177 209 247 211 175 182 137
280 284 293 305 318 328 338 339 338 333 340 338 337 341 344 344 342 344 352 57 59 47 357 347 285 209 145 83 317 341 346 345 331 305 222 240 222 209 234 211 187 284 227 246 185 190 160
269 275 279 288 299 313 328 335 339 334 332 330 334 338 340 343 342 349 25 347 235 187 46 35 16 104 100 159 346 52 356 326 214 237 221 114 248 218 217 183 15 338 322 317 75 114 179
262 273 271 280 290 300 309 325 333 335 330 333 335 335 336 340 340 13 33 329 44 1 118 79 155 99 65 320 208 73 351 256 205 204 110 159 334 40 49 31 343 304 284 272 88 138 159
244 265 278 275 281 292 303 317 325 325 324 325 329 333 339 345 4 38 72 76 70 8 253 134 81 31 49 303 51 29 340 299 339 178 169 294 89 58 352 150 263 242 259 305 345 123 220
253 251 266 275 281 286 297 306 316 320 318 315 320 329 341 357 101 60 61 5 34 37 213 148 163 96 202 320 148 4 359 344 205 25 31 36 106 206 207 272 40 287 15 14 323 350 241
254 251 257 267 277 280 288 298 305 314 316 314 318 322 333 26 110 62 240 38 28 7 359 40 101 28 36 326 62 128 342 250 338 91 253 156 160 189 235 28 14 64 10 337 306 272 307
258 258 256 260 270 277 281 288 297 307 310 307 314 321 328 19 36 148 149 97 47 58 255 125 116 146 212 180 144 146 202 191 357 317 197 61 76 357 27 64 25 62 300 242 249 244 305
256 257 260 260 262 269 276 281 287 299 307 309 312 313 345 197 153 152 119 192 62 170 54 173 174 187 263 156 157 262 164 184 235 48 224 151 149 99 319 196 123 47 322 329 324 322 229
252 251 256 258 261 263 270 275 284 293 303 306 307 313 336 175 160 142 109 183 237 283 193 51 136 156 224 130 149 154 188 214 94 249 315 185 301 142 40 53 138 190 217 184 257 247 247
262 258 252 253 252 255 259 264 273 283 295 300 304 306 265 263 167 141 160 203 234 99 110 158 148 207 175 153 292 200 209 70 62 30 204 248 161 120 33 4 251 165 205 31 310 271 282
264 269 268 254 246 247 250 255 262 274 288 298 324 266 176 254 177 134 230 254 146 20 93 190 217 185 213 156 186 191 170 345 142 2 341 130 255 306 119 247 229 284 322 142 289 290 267
265 249 269 266 252 248 244 242 246 258 275 278 240 260 203 167 136 219 212 234 115 55 335 292 311 144 250 157 219 211 90 257 337 140 312 20 129 133 148 208 174 158 224 205 266 209 238
262 244 237 263 276 259 250 242 237 237 249 219 275 235 177 155 147 215 235 40 356 139 360 134 326 349 337 136 202 243 190 62 15 154 173 66 325 249 187 70 25 351 347 178 160 241 227
263 246 239 233 260 270 260 248 238 229 206 163 228 248 153 162 193 207 151 117 324 160 196 175 186 334 26 246 240 200 85 333 102 227 133 159 229 297 277 39 360 219 190 224 22 81 205
260 252 234 243 241 242 263 257 239 231 211 164 323 225 155 207 209 258 148 193 180 52 98 3 108 121 174 212 193 45 143 139 22 303 61 17 268 212 214 118 150 186 210 211 189 201 257
258 257 258 245 234 241 243 261 243 214 195 153 217 242 225 185 223 205 161 126 159 180 284 218 198 232 182 210 184 192 140 137 201 153 202 239 246 253 281 312 323 252 223 245 223 231 237
259 264 266 265 255 237 238 253 249 214 171 124 177 231 248 341 39 171 155 204 188 142 154 212 236 183 218 221 246 145 143 162 184 147 196 152 253 15 291 269 274 284 273 250 252 260 278
264 264 270 267 260 255 233 233 243 215 195 139 197 292 305 164 185 165 195 188 197 132 247 3 217 168 210 141 85 76 59 65 84 146 190 165 223 147 249 25 313 271 251 266 238 88 121
253 266 269 277 269 255 240 229 235 234 229 175 159 139 96 274 222 212 193 143 162 180 137 123 298 220 134 108 91 76 69 62 62 70 49 177 178 49 279 10 258 204 108 134 111 111 108
256 263 268 273 279 269 247 233 231 234 231 202 163 165 148 227 204 7 132 108 95 94 81 108 46 11 168 140 114 158 167 171 126 46 327 48 173 187 213 215 291 171 223 177 138 262 88
256 260 266 271 273 276 247 230 225 230 220 207 174 161 128 127 208 70 152 200 157 137 122 98 48 191 12 204 174 209 205 179 182 141 331 10 16 149 148 210 250 197 136 75 81 279 189
259 262 265 270 273 274 256 231 218 209 206 203 178 163 126 163 91 132 153 226 48 107 110 126 161 138 351 195 202 207 210 93 191 183 164 164 197 205 227 242 282 168 144 146 90 241 157
268 268 273 274 272 263 251 217 211 186 194 181 161 177 108 74 90 49 26 345 50 243 148 130 105 240 162 208 191 206 162 198 154 122 170 164 165 190 186 227 269 144 107 178 191 105 149
284 287 283 275 267 245 215 199 178 175 191 177 128 164 147 75 88 110 103 68 57 356 325 160 303 146 176 168 232 99 135 123 203 221 4 206 182 171 176 208 181 160 98 95 98 127 150